Wind_Speed
27 28 28 30 29 28 30 28 26 22 22 23 23 27 28 21 21 21 28 25 25 20 27 26 26 19 14 9 8 5 4 4 3 5 5 4 5 6 2 4 6 9 10 5 7 6 11 11 7 7 2 10 21 15
26 27 28 29 28 25 25 25 24 20 22 25 27 26 25 24 20 20 27 27 22 25 22 30 28 32 29 31 18 15 5 6 11 4 4 2 3 2 3 4 4 5 6 6 11 7 2 25 2 12 12 21 15 12
25 24 25 24 23 22 24 23 23 21 23 25 25 23 21 23 23 23 26 26 23 19 29 38 34 31 34 29 28 8 9 10 9 7 4 2 5 4 6 6 5 4 5 3 1 7 12 15 18 13 13 13 12 9
24 24 24 24 23 22 23 23 23 23 24 25 24 25 24 24 22 22 27 27 24 13 5 14 21 18 16 18 21 24 24 11 9 11 4 2 3 8 3 1 4 2 10 6 4 7 1 15 28 20 18 12 11 10
25 24 23 23 23 23 23 23 23 24 26 27 27 28 25 23 22 24 27 29 27 19 5 9 19 19 14 14 13 19 21 16 10 6 3 3 2 2 2 1 3 9 7 6 5 5 3 3 22 30 22 17 11 10
25 25 25 23 22 23 23 24 24 26 28 27 27 28 26 25 23 25 15 20 24 26 8 3 6 6 7 8 10 13 14 14 8 5 3 5 4 5 3 3 7 23 15 21 4 8 5 6 10 19 24 16 12 9
25 24 24 24 22 22 22 23 24 24 25 25 27 27 25 27 24 20 8 10 9 15 5 3 2 1 4 6 5 6 12 7 6 3 5 4 5 7 2 4 6 12 17 17 11 13 7 12 8 15 14 15 11 9
26 25 24 24 22 21 22 20 21 22 23 24 30 26 25 25 18 22 28 26 18 12 7 2 2 3 8 3 2 5 5 5 5 4 2 3 2 3 5 10 6 4 10 15 17 11 6 13 15 15 15 13 11 8
26 24 24 22 21 18 19 18 19 22 22 24 18 21 23 16 10 10 14 10 15 7 2 3 4 3 8 3 3 3 4 2 3 2 2 4 3 6 7 5 12 15 13 16 18 10 12 14 14 15 14 12 9 8
25 24 24 21 20 19 17 16 19 21 20 23 22 11 5 4 3 1 3 3 6 5 3 1 3 1 5 3 2 3 1 1 2 2 1 3 5 20 20 15 7 9 15 21 22 14 14 14 15 13 10 7 7 7
24 23 22 20 19 16 14 14 17 19 19 11 4 4 4 9 3 2 2 2 1 3 1 2 2 3 4 2 2 3 1 0 1 1 1 2 4 2 7 19 7 12 15 18 15 4 11 8 10 10 10 9 7 6
24 23 20 18 17 13 12 11 13 17 17 13 7 4 5 4 2 0 1 3 1 3 3 3 3 3 3 3 2 1 1 0 3 1 1 3 3 7 2 16 21 15 16 16 8 11 11 8 6 8 7 6 6 5
23 22 19 17 15 12 10 10 16 14 14 7 4 2 3 2 1 5 3 2 2 4 7 5 2 3 3 2 4 1 2 2 1 1 3 4 5 3 5 18 22 20 17 17 15 12 9 6 6 5 5 5 5 4
22 21 18 16 13 11 8 9 12 10 6 3 3 3 4 3 4 3 2 1 3 3 11 11 4 2 2 2 1 2 1 1 2 2 5 2 3 7 18 18 23 24 19 16 12 10 6 5 4 4 4 3 3 3
23 21 18 15 14 10 9 8 11 10 4 4 4 5 5 4 3 4 5 4 2 10 17 6 4 2 1 2 1 2 1 4 5 4 2 3 11 17 20 19 18 20 19 16 12 8 5 4 4 4 2 2 3 4
24 18 17 16 14 9 10 12 10 8 4 5 6 2 2 1 1 4 8 6 9 18 10 3 2 2 2 2 2 6 2 5 3 3 4 4 16 18 20 17 14 14 15 14 10 6 5 5 3 2 1 2 3 4
23 17 14 15 11 11 11 8 4 6 6 5 4 7 6 4 5 4 9 8 15 16 2 2 3 3 2 1 3 4 4 3 3 6 3 14 18 19 19 17 17 17 14 10 8 7 6 3 2 1 2 3 4 5
24 23 14 14 12 11 7 7 5 6 7 7 3 4 6 5 3 4 7 13 15 8 7 3 6 3 4 4 3 3 9 6 3 4 12 17 18 17 15 17 17 13 10 10 8 6 4 3 1 1 4 6 6 6
26 21 16 16 15 10 7 9 7 4 5 3 4 5 5 4 7 6 8 16 12 10 5 5 2 3 4 5 5 5 5 6 8 13 16 18 17 16 16 15 13 11 10 8 6 5 4 2 1 4 6 7 6 6
21 19 17 17 13 8 6 4 6 3 2 3 3 4 3 3 3 5 9 16 14 6 4 4 5 4 6 5 9 10 6 12 17 20 18 19 17 15 14 12 12 10 9 8 6 4 2 1 3 5 6 7 7 6
19 18 11 10 15 7 3 4 3 1 2 3 3 3 2 2 3 5 8 15 10 6 3 13 14 13 13 14 11 6 12 18 21 16 23 22 18 16 14 13 11 9 7 6 4 2 1 3 5 6 8 8 7 7
20 17 13 17 4 6 2 3 3 4 2 2 3 2 2 2 4 5 6 10 7 10 11 11 16 13 11 9 7 9 15 19 17 6 16 16 18 17 16 12 11 8 6 4 3 3 3 4 6 7 8 7 7 5
16 13 7 7 4 2 2 7 2 3 1 2 2 1 2 2 3 4 4 7 8 12 18 21 23 13 7 5 7 15 18 18 13 11 15 14 11 11 11 11 9 7 5 4 5 4 5 5 6 7 7 7 6 5
12 7 4 5 2 3 5 2 3 3 3 1 1 3 2 2 2 2 3 5 9 10 10 18 19 21 10 4 12 16 19 18 13 14 14 14 13 13 11 9 8 7 6 6 5 5 5 6 7 7 7 7 7 6
5 1 2 2 3 4 3 1 0 1 2 3 2 2 1 2 1 2 3 4 7 8 10 11 19 21 20 16 8 15 18 17 14 15 15 14 13 11 10 9 7 6 6 5 4 3 4 6 6 7 6 5 4 3
2 1 2 4 2 3 4 3 4 5 3 2 3 1 1 1 2 4 3 3 4 6 4 9 17 21 20 18 16 17 18 18 15 13 14 13 10 5 6 6 5 5 5 3 3 4 5 6 6 5 4 3 2 3
3 4 3 4 4 5 2 1 3 2 4 4 2 3 2 2 4 3 3 3 6 10 8 7 12 18 18 16 14 14 18 19 17 13 12 13 13 10 7 5 4 4 3 2 3 5 6 6 4 3 2 2 2 3
2 5 3 7 4 4 3 2 3 4 3 4 6 3 4 5 3 2 3 13 16 15 10 9 10 16 20 15 11 13 20 20 18 15 14 13 12 10 8 6 5 4 2 2 4 5 5 3 2 0 0 1 1 1
2 4 5 2 2 3 5 4 3 4 5 8 3 3 3 4 5 12 16 18 16 11 6 6 10 16 18 17 14 15 18 19 18 17 16 13 11 11 9 7 6 4 2 3 4 4 2 1 2 3 2 1 1 1
2 6 2 3 3 3 3 5 3 4 7 9 5 5 6 8 10 15 15 12 7 1 6 10 11 14 15 16 17 19 18 16 14 11 8 6 7 7 8 8 6 3 2 3 4 2 0 0 1 2 1 0 2 2
3 3 1 1 2 2 3 5 7 7 6 6 11 12 11 9 8 6 7 4 3 6 9 11 13 13 12 13 15 16 15 13 11 9 7 7 7 7 8 8 5 3 2 3 3 2 2 2 2 3 3 4 4 4
2 1 0 1 1 3 2 1 2 2 2 3 3 3 3 4 3 3 3 3 6 8 10 10 10 10 12 13 12 10 9 9 9 8 6 7 7 8 8 6 4 2 3 3 2 2 2 2 2 3 4 4 5 5
1 0 1 2 2 2 2 2 1 2 3 2 2 2 2 3 2 3 1 3 7 9 10 11 11 13 13 13 12 9 8 8 9 8 8 9 8 7 6 4 2 2 2 2 2 2 2 3 3 4 4 4 5 4
Wind_Direction
294 292 293 290 289 285 291 289 293 297 310 306 303 302 295 286 283 284 281 277 268 267 280 264 267 247 244 224 252 158 109 192 163 221 215 205 209 208 155 176 181 172 169 185 197 215 264 144 115 174 186 139 154 156
296 293 290 287 287 288 291 294 295 297 307 306 311 307 285 289 283 282 281 282 282 272 266 280 273 271 268 258 249 195 246 170 190 196 215 205 213 153 162 244 159 210 199 179 198 210 138 186 163 193 171 158 167 169
298 297 297 293 288 286 291 296 295 297 299 306 316 305 291 289 282 275 283 281 279 273 277 268 270 258 259 250 253 229 237 216 201 196 171 191 231 166 189 224 184 237 148 216 151 234 226 210 212 194 171 167 164 171
294 300 292 293 295 293 292 293 291 295 298 303 307 306 291 291 286 270 279 281 274 266 226 264 266 262 258 253 244 239 242 224 227 201 199 207 229 194 221 286 213 166 139 206 253 270 269 247 218 205 185 176 169 177
289 293 294 293 289 290 293 294 291 293 297 305 304 305 292 293 290 290 285 279 270 253 262 267 284 281 259 257 245 236 239 228 182 174 204 222 198 179 198 263 219 192 180 195 214 211 188 207 216 211 194 188 191 194
288 288 291 292 291 290 292 295 291 293 299 301 301 303 291 290 298 304 284 274 263 249 250 255 249 234 238 240 232 230 226 214 204 189 192 219 216 207 231 241 248 213 209 220 231 199 186 152 176 194 201 206 201 204
283 286 285 288 290 290 290 290 291 293 298 301 307 303 293 286 286 260 239 269 289 237 227 268 284 326 176 166 170 197 205 221 213 210 227 195 213 213 242 224 242 214 224 219 212 170 145 158 172 167 181 185 193 195
275 277 281 282 285 287 287 295 297 303 304 307 312 305 293 298 279 259 255 272 267 196 203 222 288 269 182 151 153 173 195 202 228 232 182 198 205 226 258 233 204 226 210 198 185 190 184 167 157 165 179 189 190 199
269 271 274 279 279 284 289 292 300 310 313 319 312 320 307 284 245 263 263 242 182 215 232 177 184 227 152 134 146 169 197 223 249 247 222 183 188 225 229 187 224 218 189 184 174 169 158 164 164 176 181 187 201 207
266 266 270 273 275 282 285 298 309 312 312 297 299 294 270 313 266 257 143 188 213 242 240 156 102 137 150 145 164 162 246 290 259 254 184 247 253 242 241 243 260 229 194 181 163 161 163 167 179 184 189 196 198 203
261 262 265 268 274 280 286 299 309 318 330 300 251 232 210 165 184 256 239 203 258 317 164 123 153 138 169 152 157 211 205 99 292 285 276 270 267 248 255 217 214 188 184 187 198 178 193 184 187 190 202 203 205 218
255 256 260 263 271 270 279 290 307 311 310 306 275 219 203 223 275 317 247 325 132 248 168 153 153 132 138 151 107 166 168 101 259 39 276 262 259 306 280 193 182 175 177 173 160 163 160 163 174 185 188 199 206 219
247 250 253 256 264 258 268 282 301 311 314 299 250 200 194 192 331 173 232 249 256 186 181 161 130 133 123 112 74 100 172 226 19 250 244 243 307 352 159 166 171 172 167 163 155 155 161 163 158 161 178 192 203 224
238 242 245 247 248 244 252 260 302 297 327 256 219 250 175 227 246 198 225 233 218 183 159 144 101 117 111 74 130 133 58 300 253 249 239 254 260 161 156 157 160 164 168 168 168 166 165 159 156 176 185 194 226 253
230 228 233 239 228 236 249 259 265 285 263 249 207 236 215 221 217 229 216 178 178 166 154 116 96 116 83 100 42 100 142 240 223 238 240 313 168 161 161 159 161 163 171 176 177 175 167 168 183 187 187 232 265 280
212 211 224 219 217 227 239 259 263 236 228 237 230 257 175 115 230 210 206 191 174 164 151 126 127 125 212 148 170 213 201 233 248 226 295 179 161 163 164 160 160 164 166 168 169 173 175 182 184 171 232 266 289 309
186 196 205 197 201 221 226 205 192 213 231 235 246 231 217 253 243 211 197 187 174 161 196 142 192 196 97 194 244 195 216 236 287 300 246 171 162 155 155 156 159 158 158 167 175 173 166 160 181 247 317 348 336 321
185 187 175 187 198 188 207 214 234 227 241 226 216 209 213 223 219 212 203 178 162 195 163 198 137 177 209 215 233 234 238 261 281 161 157 161 160 158 158 160 156 160 170 172 165 155 156 155 149 352 349 336 329 324
185 181 180 194 190 192 186 195 221 250 228 220 236 226 225 243 234 233 205 193 184 181 172 165 187 219 229 221 241 272 260 199 167 151 153 155 156 162 159 162 170 174 169 160 155 161 153 136 25 349 336 328 320 320
175 178 189 214 209 193 205 194 205 242 191 188 207 203 226 231 221 210 199 192 185 172 194 215 216 224 226 281 294 291 269 186 166 149 152 159 162 164 171 178 178 171 169 171 173 169 170 300 331 327 321 319 313 307
166 157 166 180 178 189 180 172 186 173 188 207 185 197 254 206 194 184 191 192 196 223 231 228 234 249 273 285 296 264 187 179 176 176 171 166 169 171 176 179 181 179 180 179 186 201 261 308 325 318 316 318 311 301
155 158 163 181 162 167 150 169 149 158 183 159 180 238 239 224 209 200 186 201 235 233 219 226 233 263 291 269 259 195 176 177 183 185 183 180 176 181 186 189 185 183 183 192 224 266 298 310 314 313 314 310 308 311
146 156 152 171 184 163 116 155 168 164 117 227 193 299 253 233 223 195 241 231 253 251 243 240 236 261 279 249 197 175 173 176 184 183 180 181 184 181 182 182 180 192 208 229 260 280 299 309 308 312 312 313 304 295
149 170 171 157 156 151 146 149 152 148 140 163 179 278 260 224 213 225 256 253 248 262 254 231 229 230 243 232 187 181 177 176 181 180 182 188 187 183 181 188 198 215 235 261 269 283 298 301 306 310 307 303 297 293
163 168 191 28 128 106 91 89 13 107 239 203 222 258 262 178 246 240 245 260 256 282 264 237 223 226 234 241 209 195 193 192 191 191 188 186 189 187 189 198 212 228 246 256 264 283 297 305 311 312 308 300 289 288
177 186 130 167 173 156 179 152 197 205 187 199 230 165 168 235 253 242 234 244 285 310 293 225 215 219 223 226 231 219 204 195 189 198 197 193 187 207 207 215 234 240 238 234 258 296 308 313 313 312 307 290 266 270
157 227 160 154 140 144 122 93 145 169 187 206 176 165 169 239 247 245 266 291 321 322 302 258 224 216 215 220 220 212 202 196 193 194 196 195 198 209 215 234 238 231 211 229 290 311 316 315 312 311 301 272 247 245
122 166 150 167 163 181 154 182 188 207 198 172 140 191 206 212 257 294 304 314 315 309 292 251 227 208 203 201 202 198 193 192 191 189 195 202 211 219 228 228 216 204 213 284 309 318 318 314 315 301 182 182 205 238
108 146 134 120 152 203 223 201 217 196 189 179 195 231 241 241 273 303 313 317 315 305 275 233 204 191 188 189 186 185 195 195 196 195 203 212 218 222 223 209 200 204 252 306 323 326 329 106 133 133 126 133 163 139
151 164 175 187 200 220 200 208 219 220 211 212 241 270 274 282 296 311 322 327 328 233 153 148 157 165 175 181 178 175 182 193 199 213 229 234 222 217 200 197 197 216 277 315 324 323 203 135 191 154 136 303 247 277
159 180 252 227 278 257 255 261 261 257 253 249 244 256 270 292 298 319 342 5 96 135 139 142 147 155 162 172 176 177 180 187 195 203 206 210 199 187 186 188 198 230 288 311 307 266 242 242 252 258 266 271 266 264
154 169 275 279 278 299 290 265 258 254 246 252 250 251 279 280 286 317 357 107 131 136 136 137 144 153 153 157 165 173 179 190 193 196 197 186 187 182 183 189 204 247 295 297 272 238 239 250 252 249 252 254 253 253
96 119 314 316 292 292 294 292 289 301 248 264 259 270 265 276 284 347 354 159 157 157 156 150 148 154 159 162 165 170 177 184 191 194 189 183 177 181 186 195 214 272 290 272 239 248 269 273 267 261 255 253 254 252
Height
1508 1507 1504 1502 1499 1499 1497 1495 1494 1491 1490 1488 1486 1485 1484 1481 1483 1483 1478 1481 1480 1474 1464 1466 1464 1463 1460 1464 1462 1468 1471 1471 1473 1473 1464 1457 1459 1454 1459 1458 1462 1460 1465 1470 1475 1477 1461 1438 1444 1442 1435 1434 1436 1441
1500 1498 1496 1495 1493 1490 1489 1487 1487 1485 1483 1481 1479 1477 1476 1475 1474 1476 1470 1471 1472 1470 1462 1458 1454 1453 1455 1455 1454 1456 1452 1450 1451 1455 1453 1450 1451 1458 1451 1450 1450 1450 1440 1446 1444 1434 1430 1431 1427 1429 1431 1432 1437 1440
1493 1491 1488 1487 1485 1484 1483 1480 1481 1479 1477 1474 1471 1470 1469 1468 1468 1468 1464 1463 1463 1460 1456 1450 1443 1443 1443 1445 1445 1448 1446 1444 1444 1444 1445 1445 1446 1447 1444 1443 1442 1439 1438 1440 1439 1421 1426 1429 1429 1430 1431 1434 1436 1439
1486 1485 1483 1481 1479 1477 1476 1474 1473 1472 1469 1468 1466 1463 1461 1460 1459 1460 1456 1456 1456 1455 1447 1438 1435 1436 1436 1437 1437 1438 1438 1437 1439 1442 1443 1442 1439 1435 1433 1432 1431 1433 1434 1433 1428 1422 1424 1424 1423 1426 1430 1433 1435 1438
1479 1477 1477 1475 1473 1471 1469 1467 1466 1464 1463 1460 1458 1455 1454 1452 1451 1450 1447 1445 1447 1449 1441 1435 1431 1429 1430 1431 1430 1434 1435 1434 1434 1437 1437 1435 1433 1435 1433 1433 1427 1423 1420 1423 1413 1411 1413 1414 1415 1420 1425 1429 1433 1436
1470 1470 1469 1467 1466 1464 1462 1460 1459 1458 1456 1454 1452 1449 1447 1445 1444 1442 1437 1433 1433 1435 1434 1429 1426 1422 1424 1426 1426 1429 1431 1433 1432 1430 1430 1428 1428 1431 1427 1421 1408 1407 1405 1409 1410 1412 1412 1414 1416 1418 1422 1428 1431 1434
1463 1463 1463 1461 1460 1458 1457 1455 1453 1452 1450 1448 1445 1441 1438 1436 1436 1436 1429 1428 1428 1429 1429 1426 1424 1424 1422 1424 1425 1427 1428 1430 1430 1428 1427 1426 1426 1426 1420 1418 1401 1398 1402 1407 1409 1411 1415 1416 1416 1418 1422 1427 1430 1432
1456 1456 1456 1455 1454 1452 1451 1450 1449 1447 1444 1441 1437 1432 1429 1428 1427 1425 1423 1423 1423 1425 1423 1421 1424 1425 1423 1422 1424 1425 1427 1428 1426 1424 1423 1424 1424 1422 1412 1397 1396 1397 1400 1404 1407 1410 1412 1414 1416 1419 1423 1426 1428 1429
1447 1448 1448 1448 1447 1447 1446 1444 1443 1441 1438 1435 1430 1429 1426 1422 1422 1419 1419 1419 1421 1425 1420 1420 1420 1423 1422 1423 1424 1426 1425 1424 1423 1421 1421 1421 1415 1410 1391 1392 1393 1394 1396 1400 1407 1411 1412 1413 1416 1420 1423 1424 1426 1428
1439 1440 1441 1441 1441 1441 1440 1439 1438 1436 1433 1430 1428 1428 1423 1421 1420 1420 1420 1421 1421 1418 1416 1417 1418 1420 1423 1423 1424 1426 1424 1423 1422 1422 1419 1415 1399 1386 1384 1387 1389 1392 1397 1401 1406 1410 1411 1413 1417 1419 1421 1423 1425 1426
1431 1433 1434 1435 1436 1436 1435 1435 1434 1432 1428 1426 1425 1424 1422 1421 1422 1420 1420 1420 1419 1418 1416 1417 1417 1418 1420 1421 1422 1423 1423 1423 1426 1422 1420 1411 1395 1383 1381 1385 1390 1393 1398 1402 1405 1408 1411 1414 1416 1418 1420 1422 1423 1424
1423 1425 1427 1428 1429 1430 1431 1431 1430 1429 1428 1428 1425 1423 1422 1422 1422 1422 1423 1421 1421 1419 1415 1415 1417 1418 1419 1420 1421 1424 1423 1425 1422 1423 1421 1408 1385 1381 1380 1383 1389 1395 1399 1403 1407 1409 1412 1415 1417 1418 1419 1420 1422 1423
1415 1418 1420 1422 1424 1425 1426 1427 1425 1425 1425 1424 1423 1422 1422 1422 1425 1425 1423 1417 1416 1412 1413 1415 1418 1418 1420 1421 1422 1424 1424 1423 1424 1423 1412 1392 1383 1382 1381 1384 1390 1397 1401 1405 1408 1411 1414 1416 1416 1417 1418 1419 1421 1421
1407 1411 1414 1417 1419 1421 1422 1424 1422 1423 1424 1423 1421 1420 1421 1422 1420 1413 1411 1409 1410 1410 1412 1414 1417 1419 1419 1421 1423 1424 1426 1425 1423 1419 1400 1386 1383 1384 1387 1390 1393 1397 1402 1406 1410 1413 1414 1414 1415 1417 1418 1419 1419 1419
1399 1404 1408 1411 1414 1417 1418 1419 1419 1421 1423 1420 1418 1415 1413 1409 1409 1408 1408 1408 1409 1410 1412 1415 1417 1419 1421 1423 1423 1426 1427 1421 1412 1396 1387 1385 1385 1386 1390 1393 1396 1399 1403 1407 1410 1412 1413 1414 1415 1416 1417 1417 1418 1418
1392 1399 1402 1406 1410 1413 1414 1415 1416 1419 1418 1415 1410 1408 1407 1408 1407 1407 1407 1407 1408 1410 1413 1415 1417 1420 1421 1419 1423 1419 1416 1405 1391 1388 1385 1384 1386 1389 1393 1396 1399 1402 1405 1408 1410 1411 1413 1414 1414 1415 1416 1417 1417 1417
1387 1392 1397 1402 1406 1408 1410 1412 1414 1415 1412 1407 1403 1402 1403 1402 1402 1402 1403 1404 1406 1412 1412 1413 1414 1411 1419 1421 1416 1407 1403 1390 1386 1385 1385 1387 1390 1392 1395 1397 1401 1403 1406 1408 1410 1411 1412 1413 1414 1414 1415 1415 1415 1415
1381 1388 1394 1398 1401 1404 1407 1410 1411 1408 1404 1401 1401 1399 1400 1400 1400 1401 1402 1403 1405 1408 1409 1409 1411 1414 1410 1409 1398 1390 1387 1387 1386 1386 1387 1390 1393 1395 1397 1399 1402 1405 1407 1409 1409 1410 1411 1412 1413 1413 1413 1414 1414 1413
1379 1385 1391 1394 1398 1402 1403 1405 1406 1401 1399 1399 1398 1398 1398 1398 1398 1399 1400 1401 1402 1404 1405 1406 1407 1405 1396 1390 1386 1384 1384 1384 1386 1387 1389 1391 1394 1397 1399 1402 1404 1406 1407 1408 1409 1410 1411 1412 1412 1412 1412 1412 1412 1412
1378 1385 1389 1390 1396 1399 1400 1400 1401 1398 1398 1398 1397 1397 1397 1396 1396 1396 1398 1399 1402 1403 1402 1400 1393 1387 1385 1383 1382 1381 1381 1383 1385 1387 1390 1393 1396 1398 1401 1403 1405 1406 1407 1408 1409 1410 1410 1411 1411 1411 1411 1411 1411 1411
1377 1382 1386 1389 1392 1394 1395 1395 1396 1397 1396 1396 1396 1396 1396 1395 1395 1395 1396 1398 1400 1394 1388 1383 1382 1382 1382 1381 1380 1379 1381 1383 1385 1387 1388 1392 1396 1399 1401 1403 1405 1406 1407 1408 1409 1409 1410 1409 1409 1409 1409 1409 1409 1409
1375 1381 1384 1388 1389 1391 1393 1394 1395 1396 1397 1396 1397 1396 1395 1395 1394 1393 1393 1394 1388 1379 1378 1378 1379 1380 1379 1378 1378 1379 1381 1384 1388 1389 1392 1394 1395 1398 1400 1403 1404 1405 1406 1407 1408 1408 1408 1408 1408 1408 1408 1408 1407 1407
1376 1381 1384 1387 1388 1390 1395 1394 1395 1395 1396 1396 1396 1395 1393 1392 1391 1392 1390 1385 1376 1371 1373 1374 1376 1378 1377 1377 1377 1378 1381 1385 1388 1390 1392 1394 1397 1399 1401 1402 1403 1405 1406 1406 1407 1406 1406 1406 1406 1406 1406 1406 1406 1406
1378 1380 1381 1382 1385 1391 1392 1393 1394 1394 1394 1395 1395 1394 1392 1390 1390 1390 1385 1376 1369 1368 1368 1369 1372 1375 1376 1376 1377 1379 1382 1384 1387 1389 1392 1394 1396 1398 1400 1401 1403 1404 1405 1405 1405 1405 1405 1405 1404 1404 1404 1404 1404 1404
1378 1382 1383 1384 1385 1388 1392 1393 1393 1394 1394 1392 1393 1390 1390 1390 1389 1386 1380 1369 1366 1365 1365 1366 1368 1371 1374 1377 1378 1380 1382 1384 1386 1389 1391 1394 1396 1397 1399 1400 1401 1402 1403 1403 1403 1403 1403 1403 1402 1402 1402 1402 1403 1403
1376 1380 1381 1380 1384 1385 1386 1390 1390 1388 1389 1390 1389 1389 1389 1389 1387 1378 1370 1365 1364 1363 1362 1363 1365 1368 1370 1373 1376 1378 1380 1383 1386 1389 1391 1393 1395 1397 1398 1399 1400 1401 1401 1401 1402 1402 1401 1401 1400 1400 1400 1401 1401 1402
1378 1378 1377 1378 1379 1381 1383 1383 1384 1385 1386 1385 1386 1389 1388 1385 1376 1368 1365 1364 1364 1363 1362 1361 1362 1364 1368 1371 1373 1376 1379 1382 1385 1389 1391 1392 1394 1395 1397 1398 1398 1399 1399 1400 1400 1400 1400 1399 1399 1399 1399 1399 1400 1402
1372 1373 1375 1377 1378 1379 1380 1381 1381 1381 1380 1381 1383 1385 1383 1378 1370 1366 1364 1363 1361 1359 1357 1357 1359 1361 1365 1368 1371 1373 1377 1380 1384 1387 1389 1391 1392 1394 1395 1396 1397 1398 1398 1399 1398 1398 1398 1397 1397 1397 1398 1399 1400 1401
1372 1373 1374 1376 1377 1378 1377 1377 1375 1376 1376 1377 1378 1375 1372 1368 1366 1364 1362 1359 1356 1354 1353 1354 1355 1358 1362 1366 1369 1373 1377 1380 1382 1384 1387 1389 1390 1392 1393 1394 1396 1397 1397 1397 1397 1396 1396 1396 1397 1397 1398 1399 1400 1401
1373 1373 1374 1374 1374 1373 1373 1374 1374 1373 1374 1374 1374 1372 1369 1366 1364 1362 1359 1356 1354 1353 1353 1354 1357 1360 1363 1367 1369 1372 1376 1380 1383 1386 1387 1388 1389 1390 1391 1393 1394 1395 1396 1396 1396 1396 1396 1396 1397 1397 1398 1399 1400 1401
1373 1374 1374 1373 1372 1372 1372 1372 1372 1372 1372 1371 1370 1370 1367 1365 1361 1360 1358 1357 1356 1357 1357 1359 1360 1363 1365 1368 1371 1374 1377 1380 1382 1384 1385 1387 1388 1389 1391 1392 1393 1394 1394 1395 1395 1395 1395 1396 1396 1397 1397 1398 1399 1399
1374 1374 1374 1373 1373 1372 1371 1371 1370 1370 1369 1368 1367 1367 1366 1364 1362 1361 1360 1359 1359 1360 1361 1363 1364 1366 1368 1370 1373 1376 1378 1380 1382 1383 1385 1386 1387 1389 1390 1391 1392 1393 1393 1393 1394 1394 1395 1395 1395 1395 1396 1397 1397 1398
1373 1373 1373 1373 1372 1371 1371 1371 1370 1369 1368 1367 1366 1366 1365 1364 1362 1363 1361 1361 1362 1363 1364 1365 1367 1369 1371 1373 1375 1377 1378 1380 1381 1383 1384 1386 1387 1389 1390 1391 1391 1392 1392 1392 1393 1393 1393 1394 1394 1394 1395 1395 1396 1396